Flag for Germany Weather past 2 weeks in Leutkirch im Allgäu, Baden-Württemberg, Germany

Now
82 °F

Sunny.


Feels Like: 80 °F
Forecast: 56 / 85 °F
Wind: 2 mph from Northeast

Location: Kempten

Current Time: Jun 30, 2015 at 7:07:01 PM

Latest Report: Jun 30, 2015 at 6:00 PM


Visibility: 13 mi

Pressure: 30.00 "Hg

Humidity: 32%

Dew point: 49 °F

Location of Leutkirch im AllgäuLocation

Historic Weather in Leutkirch im Allgäu — Graph

°F

Leutkirch im Allgäu temperature yesterday

Maximum temperature yesterday: 78 °F (at 4:00 PM)
Minimum temperature yesterday: 53 °F (at 3:00 AM)
Average temperature yesterday: 65 °F

Past Weeks' High & Low Weather Summary

 TemperatureHumidityPressure
High82 °F (Jun 30, 4:00 PM)98% (Jun 16, 12:00 AM)30.27 "Hg (Jun 16, 12:00 AM)
Low45 °F (Jun 25, 4:00 AM)28% (Jun 30, 4:00 PM)29.73 "Hg (Jun 22, 10:00 PM)
Average59 °F74%30.09 "Hg
* Reported Jun 15 4:00 PM — Jun 30 4:00 PM, Leutkirch im Allgäu, Weather by CustomWeather, © 2015

Note: Actual official high and low records may vary slightly from our data, if they occured in-between our weather recording intervals... More about our weather records

Advertising

Leutkirch im Allgäu weather history for previous 24 hours

 ConditionsComfort  
Time TempWeatherWind HumidityBarometerVisibility
4:00 PM
Tue, Jun 30
82 °FSunny.2 mph28%30.03 "Hg3 mi
3:00 PM80 °FPassing clouds.2 mph29%30.04 "Hg12 mi
2:00 PM79 °FSunny.2 mph33%30.06 "Hg22 mi
1:00 PM79 °FSunny.1 mph32%30.07 "Hg22 mi
12:00 PM77 °FSunny.2 mph37%30.08 "Hg28 mi
10:00 AM72 °FSunny.No wind48%30.11 "Hg17 mi
9:00 AM64 °FSunny.2 mph71%30.15 "Hg14 mi
8:00 AM62 °FSunny.2 mph67%30.16 "Hg12 mi
7:00 AM58 °FSunny.2 mph77%30.18 "Hg22 mi
4:00 AM56 °FClear.3 mph83%30.19 "Hg22 mi
3:00 AM57 °FClear.3 mph82%30.19 "Hg22 mi
2:00 AM57 °FPassing clouds.2 mph84%30.21 "Hg25 mi
1:00 AM58 °FClear.2 mph87%30.21 "Hg16 mi
12:00 AM58 °FClear.2 mph90%30.21 "Hg12 mi
10:00 PM
Mon, Jun 29
63 °FClear.1 mph83%30.17 "Hg19 mi
9:00 PM68 °FPassing clouds.2 mph67%30.14 "Hg28 mi
8:00 PM74 °FSunny.1 mph43%30.11 "Hg31 mi
7:00 PM77 °FPartly sunny.2 mph43%30.09 "Hg28 mi
Weather by CustomWeather, © 2015

See weather overviewHow to use our weather pages